Flag for U.S.A. Weather past 2 weeks in Billings, Montana, U.S.A.

Now
14 °F

Clear.


Feels Like: 1 °F
Forecast: 10 / 31 °F
Wind: 10 mph from Southwest

Location: Billings Logan International Airport

Current Time: Mar 1, 2015 at 2:37:56 AM

Latest Report: Mar 1, 2015 at 1:53 AM


Visibility: 10 mi

Pressure: 30.35 "Hg

Humidity: 67%

Dew point: 5 °F

Location of BillingsLocation

Historic Weather in Billings — Graph

°F

Billings temperature yesterday

Maximum temperature yesterday: 27 °F (at 1:53 PM)
Minimum temperature yesterday: 12 °F (at 11:53 PM)
Average temperature yesterday: 19 °F

Past Weeks' High & Low Weather Summary

 TemperatureHumidityPressure
High64 °F (Feb 14, 1:53 PM)97% (Feb 15, 1:53 AM)30.68 "Hg (Feb 15, 1:53 AM)
Low0 °F (Feb 27, 4:53 AM)15% (Feb 19, 11:53 AM)29.87 "Hg (Feb 19, 11:53 PM)
Average27 °F64%30.24 "Hg
* Reported Feb 14 12:53 AM — Mar 1 12:53 AM, Billings, Weather by CustomWeather, © 2015

Note: Actual official high and low records may vary slightly from our data, if they occured in-between our weather recording intervals... More about our weather records

Advertising

Billings weather history for previous 24 hours

 ConditionsComfort  
Time TempWeatherWind HumidityBarometerVisibility
12:53 AM
Sun, Mar 1
15 °FPassing clouds.6 mph77%30.35 "Hg10 mi
11:53 PM
Sat, Feb 28
12 °FPassing clouds.7 mph80%30.35 "Hg10 mi
10:53 PM15 °FClear.5 mph80%30.34 "Hg10 mi
9:53 PM17 °FPassing clouds.8 mph74%30.32 "Hg10 mi
8:53 PM17 °FPassing clouds.8 mph64%30.30 "Hg10 mi
7:53 PM19 °FPassing clouds.3 mph62%30.27 "Hg10 mi
6:53 PM20 °FPassing clouds.6 mph60%30.26 "Hg10 mi
5:53 PM25 °FBroken clouds.7 mph46%30.22 "Hg10 mi
4:53 PM26 °FPartly sunny.5 mph44%30.22 "Hg10 mi
3:53 PM26 °FPartly sunny.3 mph44%30.22 "Hg10 mi
2:53 PM27 °FBroken clouds.6 mph42%30.22 "Hg10 mi
1:53 PM27 °FPartly sunny.10 mph45%30.22 "Hg10 mi
12:53 PM23 °FPartly sunny.3 mph53%30.24 "Hg10 mi
11:53 AM21 °FMostly cloudy.5 mph57%30.27 "Hg10 mi
10:53 AM20 °FBroken clouds.6 mph62%30.28 "Hg10 mi
9:53 AM19 °FBroken clouds.3 mph71%30.29 "Hg10 mi
8:53 AM17 °FLight snow. Overcast.3 mph70%30.29 "Hg10 mi
7:53 AM16 °FLight snow. Overcast.No wind74%30.28 "Hg9 mi
6:53 AM15 °FLight snow. Overcast.6 mph80%30.27 "Hg6 mi
5:53 AM16 °FLight snow. Overcast.6 mph77%30.24 "Hg9 mi
4:53 AM16 °FLight snow. Overcast.3 mph74%30.22 "Hg9 mi
3:53 AM16 °FOvercast.No wind74%30.20 "Hg10 mi
2:53 AM17 °FOvercast.No wind68%30.20 "Hg10 mi
Weather by CustomWeather, © 2015

See weather overviewHow to use our weather pages